SCP
0 0 0 0 0 0 0 0 0 0 0 -0 -0 0 0 0 0 0 0 0 0 0 0 0 0 0 0 0 0 0 0 0 0 0 0 0 0 0 0 0 0 0 0 0
0 0 0 0 0 0 0 0 0 0 0 0 0 0 0 0 0 0 0 0 0 0 0 0 0 0 0 0 0 0 0 0 0 0 0 0 0 0 0 0 0 0 0 0
0 0 0 0 0 0 0 0 0 0 0 0 0 0 0 0 0 0 0 0 0 0 0 0 0 0 0 0 0 0 0 0 0 0 0 0 0 0 0 0 0 0 0 0
0 0 0 0 0 0 0 0 0 0 0 0 0 0 0 0 0 0 0 0 0 0 0 0 0 0 0 0 0 0 0 0 0 0 0 0 0 0 0 0 0 0 0 0
0 0 0 0 0 0 0 0 0 0 0 0 0 0 0 0 0 0 0 0 0 0 0 0 0 0 0 0 0 0 0 0 0 0 0 0 0 0 0 0 0 0 0 0
0 0 0 0 0 0 0 0 0 0 0 0 0 0 0 0 0 0 0 0 0 0 0 0 0 0 0 0 0 0 0 0 0 0 0 0 0 0 0 0 0 0 0 0
0 0 0 0 0 0 0 0 0 0 0 0 0 0 0 0 0 0 0 0 0 0 0 0 0 0 0 0 0 0 0 0 0 0 0 0 0 0 0 0 0 0 0 0
0 0 0 0 0 0 0 0 0 0 0 0 0 0 0 0 0 0 0 0 0 0 0 0 0 0 0 0 0 0 0 0 0 0 0 0 0 0 0 0 0 0 0 0
0 0 0 0 0 0 0 0 0 0 0 0 0 0 0 0 0 0 0 0 0 0 0 0 0 0 0 0 0 0 0 0 0 0 0 0 0 0 0 0 0 0 0 0
0 0 0 0 0 0 0 0 0 0 0 0 0 0 0 0 0 0 0 0 0 0 0 0 0 0 0 0 0 0 0 0 0 0 0 0 0 0 0 0 0 0 0 0
0 0 0 0 0 0 0 0 0 0 0 0 0 0 0 0 0 0 0 0 0 0 0 0 0 0 0 0 0 0 0 0 0 0 0 0 0 0 0 0 0 0 0 0
0 0 0 0 0 0 0 0 0 0 0 0 0 0 0 0 0 0 0 0 0 0 0 0 0 0 0 0 0 0 0 0 0 0 0 0 0 0 0 0 0 0 0 0
0 0 0 0 0 0 0 0 0 0 0 0 0 0 0 0 0 0 0 0 0 0 0 0 0 0 0 0 0 0 0 0 0 0 0 0 0 0 0 0 0 0 0 0
0 0 0 0 0 0 0 0 0 0 0 0 0 0 0 0 0 0 0 0 0 0 0 0 0 0 0 0 0 0 0 0 0 0 0 0 0 0 0 0 0 0 0 0
0 0 0 0 0 0 0 0 0 0 0 0 0 0 0 0 0 0 0 0 0 0 0 0 0 0 0 0 0 0 0 0 0 0 0 0 0 0 0 0 0 0 0 0
-0 -0 -0 -0 -0 0 0 0 0 0 0 0 0 0 0 0 0 0 0 0 0 0 0 0 0 0 0 0 0 0 0 0 0 0 0 0 0 0 0 0 0 0 0 0
0 -0 -0 -0 0 0 0 0 0 0 0 0 0 0 0 0 0 0 0 0 0 0 0 0 0 0 0 0 0 0 0 0 0 0 0 0 0 0 0 0 0 0 0 0
0 0 0 0 0 0 0 0 0 0 0 0 0 0 0 0 0 0 0 0 0 0 0 0 0 0 0 0 0 0 0 0 0 0 0 0 0 0 0 0 0 0 0 0
0 0 0 0 0 0 0 0 0 0 0 0 0 0 0 0 0 0 0 0 0 0 0 0 0 0 0 0 0 0 0 0 0 0 0 0 0 0 0 0 0 0 0 0
0 0 0 0 0 0 0 0 0 0 0 0 0 0 0 0 0 0 0 0 0 0 0 0 0 0 0 0 0 0 0 0 0 0 0 0 0 0 0 0 0 0 0 0
0 0 0 0 0 0 0 0 0 0 0 0 0 0 0 0 0 0 0 0 0 0 0 0 0 0 0 0 0 0 0 0 0 0 0 0 0 0 0 0 0 0 0 0
0 0 0 0 0 0 0 0 0 0 0 0 0 0 0 0 0 0 0 0 0 0 0 0 0 0 0 0 0 0 0 0 0 0 0 0 0 0 0 0 0 0 0 0
0 0 0 0 0 0 0 0 0 0 0 0 0 0 0 0 0 0 0 0 0 0 0 0 0 0 0 0 0 0 0 0 0 0 0 0 0 0 0 0 0 0 0 0
0 0 0 0 0 0 0 0 0 0 0 0 0 0 0 0 0 0 0 0 0 0 0 0 0 0 0 0 0 0 0 0 0 0 0 0 0 0 0 0 0 0 0 0
0 0 0 0 0 0 0 0 0 0 0 0 0 0 0 0 0 0 0 0 0 0 0 0 0 0 0 0 0 0 0 0 0 0 0 0 0 0 0 0 0 0 0 0
0 0 0 0 0 0 0 0 0 0 0 0 0 0 0 0 0 0 0 0 0 0 0 0 0 0 0 0 0 0 0 0 0 0 0 0 0 0 0 0 0 0 0 0
0 0 0 0 0 0 0 0 0 0 0 0 0 0 0 0 0 0 0 0 0 0 0 0 0 0 0 0 0 0 0 0 0 0 0 0 0 0 0 0 0 0 0 0
Wind_Speed
4 3 3 4 5 7 7 8 8 8 8 10 7 7 6 5 4 4 5 6 8 8 8 8 7 7 7 7 6 7 7 6 6 5 4 4 4 4 4 4 4 4 4 4
2 2 3 4 5 7 7 6 6 5 8 7 4 2 3 4 6 6 7 8 9 8 8 9 9 8 8 7 7 7 8 7 5 5 5 5 5 4 4 4 4 4 4 4
2 2 1 5 7 7 5 4 5 7 8 4 2 4 5 6 7 7 7 8 9 9 9 9 9 9 9 8 8 7 7 6 6 6 6 5 5 5 5 4 4 4 4 4
1 1 6 8 4 5 5 5 5 5 5 4 5 5 3 4 6 7 7 7 8 8 8 7 7 7 7 7 8 8 7 7 7 7 6 5 5 5 4 4 4 4 4 4
3 3 5 6 3 5 5 4 4 5 4 3 1 1 2 3 5 7 7 6 7 8 7 8 8 8 8 8 7 7 7 7 7 8 7 6 6 5 4 4 4 3 3 4
4 4 6 7 4 3 4 4 5 4 4 2 4 1 5 4 3 4 3 4 4 5 5 6 7 8 9 8 8 9 9 8 8 8 8 8 7 5 4 4 4 4 3 3
5 5 7 6 2 4 4 7 3 3 4 4 5 6 5 2 1 2 3 3 5 6 6 6 7 9 9 8 9 8 7 7 7 7 7 7 6 5 5 4 4 4 3 2
5 5 8 3 3 6 6 3 2 3 4 4 4 2 1 1 1 2 3 3 5 6 5 5 7 9 8 8 7 6 7 7 7 7 7 7 7 6 5 6 5 4 3 1
7 7 5 2 4 4 2 2 3 3 3 3 3 2 2 2 2 3 4 4 5 6 6 5 6 7 8 6 6 7 8 7 7 6 5 6 7 7 6 5 4 4 3 3
3 5 4 4 3 3 2 3 3 3 3 3 3 2 2 2 2 3 3 4 5 6 6 5 5 5 5 6 7 8 8 7 6 7 5 5 5 5 5 5 5 4 4 4
4 5 4 4 3 3 2 2 1 1 2 3 3 2 2 2 2 3 3 3 5 6 6 6 5 5 5 6 8 8 7 6 6 6 6 5 4 4 5 5 7 7 5 5
6 5 4 6 5 4 3 3 2 1 1 1 3 3 2 3 2 3 3 4 4 5 5 5 6 5 6 7 8 8 7 6 5 5 5 4 4 2 1 2 5 7 6 6
5 4 5 7 5 4 4 3 2 2 2 1 1 2 3 2 2 3 3 4 5 5 5 5 6 6 6 7 8 8 8 7 5 5 5 5 5 5 3 1 2 3 5 6
4 2 4 4 5 4 2 1 0 0 1 2 2 2 2 2 3 3 4 4 4 4 4 5 5 5 6 7 7 7 7 7 7 6 5 5 5 5 4 4 3 1 2 4
4 4 5 5 4 3 1 1 1 1 1 1 2 3 3 3 3 3 3 3 4 4 4 5 5 5 5 7 7 7 6 5 5 5 5 5 4 4 4 4 3 2 1 1
4 3 3 3 4 3 1 1 2 3 2 2 2 2 2 3 2 2 3 4 5 5 5 5 5 4 5 7 7 6 5 8 7 5 5 4 4 4 4 4 4 3 3 3
3 4 4 3 4 4 4 4 4 4 3 3 3 3 3 3 3 3 3 3 4 4 4 4 4 4 5 7 7 5 5 6 8 6 5 5 5 5 5 4 4 4 3 4
6 7 6 6 6 5 4 3 3 3 3 3 3 4 4 4 4 4 4 3 3 2 1 3 4 4 5 6 6 5 5 5 5 5 4 4 4 4 4 4 4 4 2 2
3 4 4 4 4 4 4 3 3 3 3 3 4 4 3 3 3 3 3 4 4 3 3 3 5 4 5 6 6 5 5 5 4 4 4 5 5 4 4 4 4 4 3 3
3 2 2 2 3 3 3 3 3 3 3 4 4 4 3 3 3 4 4 3 3 3 3 4 4 4 4 5 6 4 5 6 5 5 4 4 5 4 4 4 4 4 4 4
3 2 2 2 2 2 2 2 3 3 3 4 5 5 4 3 3 4 4 2 2 2 3 5 3 3 4 5 6 4 5 5 5 5 5 5 5 4 4 4 4 4 4 4
2 2 2 2 2 1 1 2 3 3 3 3 3 4 4 3 3 2 2 2 3 4 3 3 3 4 5 5 4 4 4 5 4 4 4 4 5 5 4 4 4 4 4 4
2 2 2 3 3 2 1 1 2 3 4 4 4 5 5 4 4 4 2 2 2 4 3 3 4 6 6 4 4 4 4 4 4 4 4 4 4 4 4 5 4 4 4 4
2 2 2 1 2 2 1 1 1 1 2 2 3 4 4 3 2 1 2 4 5 4 3 4 6 6 6 3 4 4 4 4 4 4 4 3 3 4 4 4 4 3 3 4
1 2 1 2 2 2 2 2 1 1 1 1 1 1 2 3 3 3 3 4 5 5 3 5 6 6 4 3 4 4 4 4 4 4 4 3 3 3 3 3 3 3 3 3
1 1 2 2 3 2 2 2 2 2 2 2 1 1 1 2 3 3 3 3 4 4 3 3 3 4 3 4 4 4 4 4 4 3 4 4 4 3 3 3 3 3 3 3
1 0 0 0 1 2 2 3 3 3 3 3 2 2 2 2 3 3 3 3 3 3 3 2 3 3 3 3 3 3 3 3 3 3 3 3 3 3 3 3 3 3 3 3
Wind_Direction
225 217 188 212 206 190 193 196 201 230 236 253 246 235 229 216 204 197 193 188 185 186 184 179 177 176 173 174 171 165 160 164 173 166 157 150 147 147 145 147 151 146 135 131
265 242 213 251 234 210 211 208 219 237 256 258 254 229 222 215 207 208 206 199 192 187 183 182 181 178 172 172 170 165 166 171 163 153 150 150 150 146 142 141 139 136 138 142
254 289 72 258 231 208 208 204 189 218 245 265 257 230 218 211 210 213 212 202 191 188 189 189 185 179 177 174 163 163 166 163 159 159 155 156 152 145 150 150 141 138 144 145
172 136 227 242 230 192 192 223 212 228 248 235 229 236 227 207 208 217 212 201 194 187 187 186 176 172 165 157 159 163 163 161 161 160 155 149 147 151 152 144 146 149 151 154
151 206 264 281 233 177 182 248 224 221 247 252 236 39 316 257 217 212 207 200 194 185 181 174 171 167 155 157 160 162 168 169 168 162 155 152 157 159 153 146 150 153 154 158
154 184 231 245 247 185 137 259 247 207 214 198 110 103 273 269 236 219 202 184 172 156 150 162 168 159 156 164 167 177 180 175 167 162 160 164 166 158 150 151 154 147 146 162
181 215 254 257 266 115 161 239 250 194 192 169 181 208 240 245 220 199 182 157 144 144 156 168 162 159 164 170 184 185 170 158 156 160 162 161 155 149 146 144 135 136 140 147
170 204 247 265 134 170 215 237 201 193 185 180 208 231 222 185 169 156 142 137 143 148 155 156 157 160 167 182 183 160 151 151 155 157 160 155 149 151 148 142 137 140 137 135
192 213 234 215 209 233 212 210 226 206 210 181 185 213 204 182 166 167 161 153 151 151 149 153 163 166 173 180 158 149 148 154 155 154 157 153 155 155 149 150 152 158 161 174
246 262 268 263 267 279 240 223 230 209 197 181 190 205 193 178 168 162 157 157 152 146 149 161 171 172 170 155 149 147 152 155 152 151 152 151 154 158 159 164 166 169 177 187
252 279 303 293 274 278 276 274 264 243 210 192 170 180 185 177 178 173 159 154 153 158 166 171 167 163 153 149 148 148 152 153 151 151 154 154 155 167 172 185 183 181 191 184
224 227 220 260 273 286 274 261 241 218 248 225 169 172 171 174 176 162 156 149 150 158 163 165 162 162 159 155 154 150 151 157 156 155 155 155 151 132 121 169 179 185 181 175
226 249 248 266 280 277 254 250 228 207 192 194 189 165 157 158 155 147 151 156 166 173 168 161 161 165 167 161 160 159 160 162 159 161 161 162 164 164 162 120 141 180 188 187
238 245 266 265 271 282 264 261 235 109 139 156 161 145 135 137 145 151 168 176 168 159 157 157 160 172 173 164 163 163 160 163 164 169 168 169 172 175 170 167 170 206 215 197
247 233 239 262 275 278 287 78 112 125 116 123 149 149 150 159 171 180 169 149 142 145 154 155 166 178 166 165 166 166 161 163 166 164 164 165 163 161 164 171 174 173 155 194
261 274 267 253 247 240 216 186 193 200 185 171 157 160 165 157 152 147 147 148 152 166 175 172 182 184 168 163 163 164 168 170 164 161 159 158 158 161 168 174 178 181 191 194
227 253 256 255 244 234 221 215 209 205 195 179 177 162 137 126 125 136 152 163 163 170 176 177 181 169 163 163 163 165 163 169 166 161 167 169 167 173 177 179 185 192 204 195
219 224 223 224 229 223 221 213 203 192 197 194 158 144 149 161 171 173 165 148 132 127 181 182 169 163 164 165 164 161 160 163 167 170 169 169 170 174 174 179 185 188 193 188
235 227 230 228 226 210 201 207 202 189 179 162 156 165 171 177 173 163 148 146 156 182 215 187 169 163 165 171 163 159 159 160 161 164 165 166 165 168 174 180 184 186 182 182
237 229 216 225 227 205 195 204 187 176 176 161 155 155 160 173 164 155 152 171 200 202 185 174 167 165 167 168 161 159 162 164 166 166 164 166 171 176 180 185 186 183 184 188
230 224 207 210 224 220 192 186 179 179 179 166 163 170 173 173 166 160 157 185 230 174 164 165 163 164 162 162 158 156 160 163 166 168 171 174 176 177 179 183 187 188 188 190
224 215 208 202 192 207 214 193 181 173 166 165 162 159 154 158 163 164 188 196 189 161 152 157 161 160 158 153 151 155 161 164 166 166 170 172 174 177 182 186 192 193 193 195
214 201 195 197 189 189 185 189 187 180 178 177 175 172 171 175 174 168 192 202 166 165 160 169 167 163 159 150 151 156 160 163 166 168 172 174 177 179 181 187 194 193 191 195
197 202 215 203 148 139 172 241 223 201 180 180 185 177 165 158 171 201 176 167 163 158 163 167 163 163 156 152 154 158 163 165 166 166 167 170 173 175 178 183 190 194 195 198
191 189 178 162 167 189 196 173 130 120 130 148 168 181 180 171 171 173 157 160 163 157 157 166 165 163 155 151 156 161 166 170 167 162 164 167 172 176 180 182 187 192 198 205
190 195 201 205 194 181 174 168 175 184 165 159 168 168 144 134 137 142 146 155 157 154 150 152 158 161 158 156 159 163 163 165 165 163 168 171 174 176 179 181 185 195 200 206
56 96 152 165 188 177 175 177 180 190 186 174 173 176 152 140 138 140 143 147 149 149 147 148 154 159 157 157 159 160 159 160 161 164 166 170 175 178 180 185 190 196 198 198